User: anonymous   Login
Location: Young's Pond
(41.2695°N, 72.7766°W)
Time: 05:28:24
(UTC-05:00)
Language:

CZ-4B R/B - Orbit

View from above orbital plane
View from above orbital plane
View from above satellite
View from above satellite

Ground track
Ground track

The orbit data is extracted from the following two-line orbital elements,

1 29093U 06015B   16341.82322327  .00003394  00000-0  85875-4 0  9995
2 29093  97.4881  82.4846 0064943 289.2898  70.1331 15.38364899587940
Epoch (UTC): 06 December 2016 19:45:26
Eccentricity: 0.0064943
inclination: 97.4881°
perigee height: 406 km
apogee height: 495 km
right ascension of ascending node: 82.4846°
argument of perigee: 289.2898°
revolutions per day: 15.38364899
mean anomaly at epoch: 70.1331°
orbit number at epoch: 58794

The dashed part of the orbit path shows where the satellite is in the earth's shadow,  

DLR